Weather in Novoangarsk

Russia / Krasnoyarsk Krai     58˚07′45″N   93˚29′21″E
temp.,
°C
wind,
m/s
gust,
m/s
humid.,
%
clouds,
%
prec.,
mm/h
press.,
hPa
HPBL,
m
17 january, sun
sun1701:00−18˚ese3797100 2.3 1023271
04:00−19˚e2698100 0.3 1022167
07:00−19˚e3896100 0.4 1021242
10:00−21˚e41095100 0.1 1020280
13:00−21˚e4995100 0.1 1017278
16:00−21˚e51196100 0.3 1014301
19:00−20˚ese51295100 0.3 1012424
22:00−19˚e4996100 0.1 1010276
18 january, mon
mon1801:00−20˚ene1199100 0.4 101025
04:00−17˚sw1398100 0.3 101167
07:00−14˚sw3995100 0.5 1010372
10:00−14˚sse2698100 0.1 1008197
13:00−8˚ssw41194100 1.4 1004823
16:00−8˚sw4994100 1.3 1002886
19:00−9˚w51093100 1.9 1003921
22:00−11˚w51193100 0.4 1004953
19 january, tue
tue1901:00−12˚w51193100 0.8 1007942
04:00−13˚w51192100 0.4 1010974
07:00−15˚w61188100 0.9 1014880
10:00−23˚w41095100 0.1 1018490
13:00−23˚w3793100 0.1 1020437
16:00−23˚sw1297100 0.0 102096
19:00−23˚ese1298100 0.0 101821
22:00−21˚e1299100 0.4 1015107
20 january, wed
wed2001:00−21˚e2299100 0.6 101470
04:00−21˚se12100100 0.3 101445
07:00−20˚sw2799100 0.5 1014234
10:00−22˚wsw3797100 0.1 1014394
13:00−23˚wsw3695100 0.2 1015416
16:00−25˚w2398100 0.0 101684
19:00−29˚wnw1210092 0.1 101919
22:00−31˚w1110027 0.0 102119
21 january, thu
thu2101:00−29˚nne119664 0.0 102119
04:00−29˚se1195100 0.0 102119
07:00−29˚ene1196100 0.0 102030
10:00−27˚ne1198100 0.2 101980
13:00−24˚ese1194100 0.3 1018232
16:00−24˚s0097100 0.1 101874
19:00−26˚wnw019999 0.1 101919
22:00−29˚n119980 0.0 101919